000000,17.2871, 05 Nov 2015, 00:00:36
000030,17.2867, 05 Nov 2015, 00:01:06
000100,17.2876, 05 Nov 2015, 00:01:36
000130,17.2877, 05 Nov 2015, 00:02:05
000200,17.2878, 05 Nov 2015, 00:02:36
000230,17.2884, 05 Nov 2015, 00:03:06
000300,17.2889, 05 Nov 2015, 00:03:36
000330,17.2888, 05 Nov 2015, 00:04:06
000400,17.2885, 05 Nov 2015, 00:04:35
000430,17.2899, 05 Nov 2015, 00:05:06
000500,17.2896, 05 Nov 2015, 00:05:36
000530,17.2899, 05 Nov 2015, 00:06:06
000600,17.2897, 05 Nov 2015, 00:06:36
000700,17.2915, 05 Nov 2015, 00:07:35
000730,17.2924, 05 Nov 2015, 00:08:06
000800,17.2938, 05 Nov 2015, 00:08:36
000830,17.2953, 05 Nov 2015, 00:09:06
000930,17.2987, 05 Nov 2015, 00:10:05
001000,17.3006, 05 Nov 2015, 00:10:36
001030,17.3019, 05 Nov 2015, 00:11:06
001100,17.3033, 05 Nov 2015, 00:11:35
001130,17.3039, 05 Nov 2015, 00:12:05
001200,17.3037, 05 Nov 2015, 00:12:35
001230,17.3035, 05 Nov 2015, 00:13:06
001300,17.3026, 05 Nov 2015, 00:13:36
001330,17.3013, 05 Nov 2015, 00:14:05
001400,17.3, 05 Nov 2015, 00:14:35
001430,17.299, 05 Nov 2015, 00:15:06
001500,17.2975, 05 Nov 2015, 00:15:36
001530,17.2972, 05 Nov 2015, 00:16:06
001600,17.2953, 05 Nov 2015, 00:16:35
001630,17.2939, 05 Nov 2015, 00:17:05
001700,17.293, 05 Nov 2015, 00:17:36
001730,17.2914, 05 Nov 2015, 00:18:06
001800,17.2888, 05 Nov 2015, 00:18:36
001830,17.2853, 05 Nov 2015, 00:19:05
001900,17.2814, 05 Nov 2015, 00:19:35
001930,17.278, 05 Nov 2015, 00:20:06
002030,17.2663, 05 Nov 2015, 00:21:05
002100,17.2594, 05 Nov 2015, 00:21:35
002130,17.2532, 05 Nov 2015, 00:22:05
002200,17.2477, 05 Nov 2015, 00:22:36
002230,17.2466, 05 Nov 2015, 00:23:05
002300,17.2487, 05 Nov 2015, 00:23:35
002330,17.2536, 05 Nov 2015, 00:24:05
002400,17.2599, 05 Nov 2015, 00:24:35
002430,17.265, 05 Nov 2015, 00:25:06
002500,17.2653, 05 Nov 2015, 00:25:35
002530,17.2614, 05 Nov 2015, 00:26:05
002600,17.2534, 05 Nov 2015, 00:26:35
002630,17.2433, 05 Nov 2015, 00:27:06
002700,17.2328, 05 Nov 2015, 00:27:36
002730,17.2244, 05 Nov 2015, 00:28:05
002800,17.2168, 05 Nov 2015, 00:28:35
002830,17.2087, 05 Nov 2015, 00:29:05
002900,17.2014, 05 Nov 2015, 00:29:36
002930,17.1958, 05 Nov 2015, 00:30:05
003000,17.1903, 05 Nov 2015, 00:30:35
003030,17.1868, 05 Nov 2015, 00:31:05
003100,17.1835, 05 Nov 2015, 00:31:35
003200,17.1787, 05 Nov 2015, 00:32:35
003230,17.1752, 05 Nov 2015, 00:33:05
003300,17.1704, 05 Nov 2015, 00:33:35
003330,17.1651, 05 Nov 2015, 00:34:05
003430,17.1552, 05 Nov 2015, 00:35:05
003500,17.1499, 05 Nov 2015, 00:35:35
003530,17.1442, 05 Nov 2015, 00:36:05
003600,17.1389, 05 Nov 2015, 00:36:35
003630,17.1342, 05 Nov 2015, 00:37:05
003700,17.1297, 05 Nov 2015, 00:37:35
003730,17.1234, 05 Nov 2015, 00:38:05
003800,17.1161, 05 Nov 2015, 00:38:35
003830,17.1075, 05 Nov 2015, 00:39:05
003900,17.0991, 05 Nov 2015, 00:39:35
003930,17.0877, 05 Nov 2015, 00:40:06
004000,17.0768, 05 Nov 2015, 00:40:36
004030,17.0647, 05 Nov 2015, 00:41:06
004100,17.0515, 05 Nov 2015, 00:41:35
004130,17.0369, 05 Nov 2015, 00:42:06
004200,17.0216, 05 Nov 2015, 00:42:36
004230,17.0049, 05 Nov 2015, 00:43:06
004300,16.9891, 05 Nov 2015, 00:43:36
004330,16.9743, 05 Nov 2015, 00:44:05
004400,16.9626, 05 Nov 2015, 00:44:36
004430,16.9517, 05 Nov 2015, 00:45:06
004500,16.944, 05 Nov 2015, 00:45:36
004600,16.9348, 05 Nov 2015, 00:46:36
004630,16.9318, 05 Nov 2015, 00:47:06
004700,16.9316, 05 Nov 2015, 00:47:36
004730,16.9335, 05 Nov 2015, 00:48:06
004800,16.9356, 05 Nov 2015, 00:48:35
004830,16.9385, 05 Nov 2015, 00:49:06
004900,16.9438, 05 Nov 2015, 00:49:36
004930,16.9504, 05 Nov 2015, 00:50:05
005000,16.9623, 05 Nov 2015, 00:50:35
005030,16.9779, 05 Nov 2015, 00:51:06
005100,16.9932, 05 Nov 2015, 00:51:36
005130,17.0066, 05 Nov 2015, 00:52:06
005200,17.0175, 05 Nov 2015, 00:52:35
005230,17.0269, 05 Nov 2015, 00:53:05
005300,17.0343, 05 Nov 2015, 00:53:36
005330,17.0405, 05 Nov 2015, 00:54:06
005400,17.045, 05 Nov 2015, 00:54:36
005430,17.0485, 05 Nov 2015, 00:55:05
005500,17.0515, 05 Nov 2015, 00:55:35
005530,17.0524, 05 Nov 2015, 00:56:06
005600,17.0526, 05 Nov 2015, 00:56:36
005630,17.0519, 05 Nov 2015, 00:57:06
005700,17.0504, 05 Nov 2015, 00:57:35
005730,17.0483, 05 Nov 2015, 00:58:05
005800,17.0437, 05 Nov 2015, 00:58:35
005830,17.039, 05 Nov 2015, 00:59:06
005900,17.0345, 05 Nov 2015, 00:59:36
005930,17.0312, 05 Nov 2015, 01:00:05
010000,17.0299, 05 Nov 2015, 01:00:35
010030,17.0283, 05 Nov 2015, 01:01:05
010100,17.0276, 05 Nov 2015, 01:01:36
010130,17.0271, 05 Nov 2015, 01:02:06
010200,17.0285, 05 Nov 2015, 01:02:35
010230,17.0327, 05 Nov 2015, 01:03:05
010300,17.043, 05 Nov 2015, 01:03:35
010330,17.0593, 05 Nov 2015, 01:04:05
010400,17.08, 05 Nov 2015, 01:04:36
010430,17.1028, 05 Nov 2015, 01:05:06
010500,17.1223, 05 Nov 2015, 01:05:35
010530,17.1399, 05 Nov 2015, 01:06:05
010600,17.1534, 05 Nov 2015, 01:06:35
010630,17.1642, 05 Nov 2015, 01:07:06
010700,17.1719, 05 Nov 2015, 01:07:36
010730,17.1769, 05 Nov 2015, 01:08:05
010800,17.1815, 05 Nov 2015, 01:08:35
010830,17.1842, 05 Nov 2015, 01:09:05
010900,17.1863, 05 Nov 2015, 01:09:35
010930,17.1884, 05 Nov 2015, 01:10:05
011000,17.1909, 05 Nov 2015, 01:10:35
011030,17.1927, 05 Nov 2015, 01:11:05
011100,17.1935, 05 Nov 2015, 01:11:35
011130,17.194, 05 Nov 2015, 01:12:05
011200,17.194, 05 Nov 2015, 01:12:35
011230,17.1939, 05 Nov 2015, 01:13:05
011300,17.1938, 05 Nov 2015, 01:13:35
011330,17.1937, 05 Nov 2015, 01:14:05
011400,17.1938, 05 Nov 2015, 01:14:36
011430,17.1931, 05 Nov 2015, 01:15:05
011500,17.1921, 05 Nov 2015, 01:15:35
011530,17.1916, 05 Nov 2015, 01:16:05
011600,17.1895, 05 Nov 2015, 01:16:35
011630,17.1879, 05 Nov 2015, 01:17:06
011700,17.1853, 05 Nov 2015, 01:17:35
011730,17.1829, 05 Nov 2015, 01:18:05
011800,17.1821, 05 Nov 2015, 01:18:35
011830,17.1812, 05 Nov 2015, 01:19:05
011900,17.1801, 05 Nov 2015, 01:19:36
011930,17.1801, 05 Nov 2015, 01:20:06
012000,17.1787, 05 Nov 2015, 01:20:36
012030,17.1767, 05 Nov 2015, 01:21:06
012100,17.1751, 05 Nov 2015, 01:21:36
012130,17.172, 05 Nov 2015, 01:22:06
012200,17.1672, 05 Nov 2015, 01:22:36
012230,17.1593, 05 Nov 2015, 01:23:06
012300,17.1641, 05 Nov 2015, 01:23:36
012330,17.2013, 05 Nov 2015, 01:24:05
012400,17.2581, 05 Nov 2015, 01:24:36
012430,17.3233, 05 Nov 2015, 01:25:06
012500,17.3853, 05 Nov 2015, 01:25:36
012530,17.4461, 05 Nov 2015, 01:26:06
012600,17.5016, 05 Nov 2015, 01:26:35
012630,17.5564, 05 Nov 2015, 01:27:06
012700,17.6032, 05 Nov 2015, 01:27:36
012730,17.6408, 05 Nov 2015, 01:28:06
012800,17.6693, 05 Nov 2015, 01:28:36
012830,17.6907, 05 Nov 2015, 01:29:06
012900,17.709, 05 Nov 2015, 01:29:36
012930,17.7263, 05 Nov 2015, 01:30:06
013000,17.7435, 05 Nov 2015, 01:30:35
013030,17.7601, 05 Nov 2015, 01:31:05
013100,17.7776, 05 Nov 2015, 01:31:36
013130,17.7928, 05 Nov 2015, 01:32:06
013200,17.8072, 05 Nov 2015, 01:32:36
013230,17.8189, 05 Nov 2015, 01:33:05
013300,17.8303, 05 Nov 2015, 01:33:36
013330,17.8399, 05 Nov 2015, 01:34:06
013400,17.8486, 05 Nov 2015, 01:34:36
013430,17.8557, 05 Nov 2015, 01:35:05
013500,17.8632, 05 Nov 2015, 01:35:35
013530,17.8701, 05 Nov 2015, 01:36:06
013600,17.8781, 05 Nov 2015, 01:36:36
013630,17.8861, 05 Nov 2015, 01:37:05
013700,17.8947, 05 Nov 2015, 01:37:35
013730,17.9032, 05 Nov 2015, 01:38:06
013800,17.9116, 05 Nov 2015, 01:38:36
013830,17.919, 05 Nov 2015, 01:39:06
013900,17.9254, 05 Nov 2015, 01:39:35
013930,17.9326, 05 Nov 2015, 01:40:06
014000,17.9391, 05 Nov 2015, 01:40:36
014030,17.9462, 05 Nov 2015, 01:41:05
014100,17.9538, 05 Nov 2015, 01:41:35
014130,17.9632, 05 Nov 2015, 01:42:05
014200,17.9736, 05 Nov 2015, 01:42:36
014230,17.9835, 05 Nov 2015, 01:43:05
014300,17.9916, 05 Nov 2015, 01:43:35
014330,17.9983, 05 Nov 2015, 01:44:05
014400,18.0035, 05 Nov 2015, 01:44:36
014430,18.0073, 05 Nov 2015, 01:45:06
014500,18.0088, 05 Nov 2015, 01:45:35
014530,18.0111, 05 Nov 2015, 01:46:05
014600,18.0125, 05 Nov 2015, 01:46:35
014630,18.0167, 05 Nov 2015, 01:47:05
014700,18.0224, 05 Nov 2015, 01:47:36
014730,18.0294, 05 Nov 2015, 01:48:06
014800,18.035, 05 Nov 2015, 01:48:35
014830,18.0407, 05 Nov 2015, 01:49:05
014900,18.0435, 05 Nov 2015, 01:49:35
014930,18.048, 05 Nov 2015, 01:50:06
015000,18.0514, 05 Nov 2015, 01:50:35
015030,18.0548, 05 Nov 2015, 01:51:05
015100,18.0579, 05 Nov 2015, 01:51:35
015130,18.061, 05 Nov 2015, 01:52:05
015200,18.0641, 05 Nov 2015, 01:52:36
015230,18.0666, 05 Nov 2015, 01:53:05
015300,18.0682, 05 Nov 2015, 01:53:35
015330,18.0702, 05 Nov 2015, 01:54:05
015400,18.0717, 05 Nov 2015, 01:54:35
015430,18.0722, 05 Nov 2015, 01:55:06
015500,18.0722, 05 Nov 2015, 01:55:35
015530,18.0721, 05 Nov 2015, 01:56:05
015600,18.071, 05 Nov 2015, 01:56:35
015630,18.0699, 05 Nov 2015, 01:57:05
015700,18.0685, 05 Nov 2015, 01:57:36
015730,18.0686, 05 Nov 2015, 01:58:05
015800,18.0688, 05 Nov 2015, 01:58:35
015830,18.0692, 05 Nov 2015, 01:59:05
015900,18.07, 05 Nov 2015, 01:59:35
015930,18.0701, 05 Nov 2015, 02:00:06
020000,18.0706, 05 Nov 2015, 02:00:36
020030,18.0713, 05 Nov 2015, 02:01:06
020100,18.0711, 05 Nov 2015, 02:01:36
020130,18.0708, 05 Nov 2015, 02:02:06
020200,18.0709, 05 Nov 2015, 02:02:35
020230,18.0714, 05 Nov 2015, 02:03:06
020300,18.0727, 05 Nov 2015, 02:03:36
020330,18.0731, 05 Nov 2015, 02:04:06
020400,18.0745, 05 Nov 2015, 02:04:36
020430,18.0764, 05 Nov 2015, 02:05:06
020500,18.0786, 05 Nov 2015, 02:05:36
020530,18.081, 05 Nov 2015, 02:06:06
020600,18.0844, 05 Nov 2015, 02:06:36
020630,18.0872, 05 Nov 2015, 02:07:06
020700,18.0909, 05 Nov 2015, 02:07:36
020730,18.0939, 05 Nov 2015, 02:08:05
020800,18.0964, 05 Nov 2015, 02:08:36
020830,18.0992, 05 Nov 2015, 02:09:06
020900,18.1012, 05 Nov 2015, 02:09:36
020930,18.1032, 05 Nov 2015, 02:10:05
021000,18.1057, 05 Nov 2015, 02:10:35
021030,18.1072, 05 Nov 2015, 02:11:06
021100,18.1099, 05 Nov 2015, 02:11:36
021130,18.1119, 05 Nov 2015, 02:12:06
021200,18.1139, 05 Nov 2015, 02:12:35
021230,18.1155, 05 Nov 2015, 02:13:05
021300,18.1164, 05 Nov 2015, 02:13:36
021330,18.1171, 05 Nov 2015, 02:14:06
021400,18.1176, 05 Nov 2015, 02:14:36
021430,18.1177, 05 Nov 2015, 02:15:05
021500,18.1176, 05 Nov 2015, 02:15:35
021530,18.1175, 05 Nov 2015, 02:16:06
021600,18.1164, 05 Nov 2015, 02:16:36
021630,18.1152, 05 Nov 2015, 02:17:06
021700,18.1143, 05 Nov 2015, 02:17:35
021730,18.1125, 05 Nov 2015, 02:18:05
021800,18.1113, 05 Nov 2015, 02:18:36
021830,18.1094, 05 Nov 2015, 02:19:06
021900,18.1074, 05 Nov 2015, 02:19:36
021930,18.1059, 05 Nov 2015, 02:20:05
022000,18.1035, 05 Nov 2015, 02:20:35
022030,18.1004, 05 Nov 2015, 02:21:06
022100,18.0982, 05 Nov 2015, 02:21:36
022130,18.0948, 05 Nov 2015, 02:22:05
022200,18.0925, 05 Nov 2015, 02:22:35
022230,18.0903, 05 Nov 2015, 02:23:05
022300,18.088, 05 Nov 2015, 02:23:36
022330,18.0849, 05 Nov 2015, 02:24:06
022400,18.0818, 05 Nov 2015, 02:24:35
022430,18.0784, 05 Nov 2015, 02:25:05
022500,18.074, 05 Nov 2015, 02:25:35
022530,18.0702, 05 Nov 2015, 02:26:06
022600,18.0662, 05 Nov 2015, 02:26:36
022630,18.0637, 05 Nov 2015, 02:27:05
022700,18.0601, 05 Nov 2015, 02:27:35
022730,18.0565, 05 Nov 2015, 02:28:05
022800,18.0539, 05 Nov 2015, 02:28:36
022830,18.0508, 05 Nov 2015, 02:29:06
022900,18.0472, 05 Nov 2015, 02:29:36
022930,18.0435, 05 Nov 2015, 02:30:05
023000,18.0396, 05 Nov 2015, 02:30:35
023030,18.0349, 05 Nov 2015, 02:31:05
023100,18.0307, 05 Nov 2015, 02:31:36
023130,18.027, 05 Nov 2015, 02:32:05
023200,18.0224, 05 Nov 2015, 02:32:35
023230,18.0174, 05 Nov 2015, 02:33:05
023300,18.0118, 05 Nov 2015, 02:33:35
023330,18.0069, 05 Nov 2015, 02:34:06
023400,18.0019, 05 Nov 2015, 02:34:35
023430,17.9977, 05 Nov 2015, 02:35:05
023500,17.994, 05 Nov 2015, 02:35:35
023530,17.9907, 05 Nov 2015, 02:36:05
023600,17.9883, 05 Nov 2015, 02:36:36
023630,17.9868, 05 Nov 2015, 02:37:05
023700,17.9857, 05 Nov 2015, 02:37:35
023730,17.984, 05 Nov 2015, 02:38:05
023800,17.9833, 05 Nov 2015, 02:38:36
023830,17.9822, 05 Nov 2015, 02:39:05
023900,17.9817, 05 Nov 2015, 02:39:35
023930,17.9813, 05 Nov 2015, 02:40:06
024000,17.981, 05 Nov 2015, 02:40:35
024030,17.9808, 05 Nov 2015, 02:41:06
024100,17.9809, 05 Nov 2015, 02:41:36
024130,17.9798, 05 Nov 2015, 02:42:06
024200,17.9795, 05 Nov 2015, 02:42:36
024230,17.9794, 05 Nov 2015, 02:43:06
024300,17.9786, 05 Nov 2015, 02:43:36
024330,17.9776, 05 Nov 2015, 02:44:06
024400,17.9778, 05 Nov 2015, 02:44:36
024430,17.9775, 05 Nov 2015, 02:45:06
024500,17.9765, 05 Nov 2015, 02:45:36
024530,17.9756, 05 Nov 2015, 02:46:06
024600,17.9754, 05 Nov 2015, 02:46:36
024630,17.9746, 05 Nov 2015, 02:47:05
024700,17.9737, 05 Nov 2015, 02:47:36
024730,17.9732, 05 Nov 2015, 02:48:06
024800,17.9718, 05 Nov 2015, 02:48:36
024830,17.9705, 05 Nov 2015, 02:49:06
024900,17.9701, 05 Nov 2015, 02:49:36
024930,17.9688, 05 Nov 2015, 02:50:06
025000,17.9685, 05 Nov 2015, 02:50:36
025030,17.9677, 05 Nov 2015, 02:51:05
025100,17.967, 05 Nov 2015, 02:51:36
025130,17.9668, 05 Nov 2015, 02:52:06
025200,17.9662, 05 Nov 2015, 02:52:36
025230,17.9657, 05 Nov 2015, 02:53:05
025300,17.9653, 05 Nov 2015, 02:53:35
025330,17.9651, 05 Nov 2015, 02:54:06
025400,17.9649, 05 Nov 2015, 02:54:36
025430,17.9653, 05 Nov 2015, 02:55:06
025500,17.9649, 05 Nov 2015, 02:55:35
025530,17.965, 05 Nov 2015, 02:56:06
025600,17.9649, 05 Nov 2015, 02:56:36
025630,17.9648, 05 Nov 2015, 02:57:06
025700,17.9648, 05 Nov 2015, 02:57:35
025730,17.9652, 05 Nov 2015, 02:58:06
025800,17.965, 05 Nov 2015, 02:58:36
025830,17.965, 05 Nov 2015, 02:59:06
025900,17.965, 05 Nov 2015, 02:59:35
025930,17.9652, 05 Nov 2015, 03:00:05
030000,17.9652, 05 Nov 2015, 03:00:36
030030,17.9651, 05 Nov 2015, 03:01:06
030100,17.9661, 05 Nov 2015, 03:01:35
030130,17.9655, 05 Nov 2015, 03:02:05
030200,17.9653, 05 Nov 2015, 03:02:36
030230,17.9643, 05 Nov 2015, 03:03:06
030300,17.9643, 05 Nov 2015, 03:03:35
030330,17.9634, 05 Nov 2015, 03:04:05
030400,17.9636, 05 Nov 2015, 03:04:35
030430,17.9647, 05 Nov 2015, 03:05:06
030500,17.9653, 05 Nov 2015, 03:05:36
030530,17.9647, 05 Nov 2015, 03:06:05
030600,17.9645, 05 Nov 2015, 03:06:35
030630,17.965, 05 Nov 2015, 03:07:05
030700,17.9651, 05 Nov 2015, 03:07:36
030730,17.9657, 05 Nov 2015, 03:08:06
030800,17.9662, 05 Nov 2015, 03:08:35
030830,17.967, 05 Nov 2015, 03:09:05
030900,17.9687, 05 Nov 2015, 03:09:36
030930,17.9694, 05 Nov 2015, 03:10:05
031000,17.9703, 05 Nov 2015, 03:10:35
031030,17.9704, 05 Nov 2015, 03:11:05
031100,17.971, 05 Nov 2015, 03:11:35
031130,17.9713, 05 Nov 2015, 03:12:06
031200,17.9722, 05 Nov 2015, 03:12:35
031230,17.9717, 05 Nov 2015, 03:13:05
031300,17.9712, 05 Nov 2015, 03:13:35
031330,17.9706, 05 Nov 2015, 03:14:06
031400,17.9705, 05 Nov 2015, 03:14:35
031430,17.9698, 05 Nov 2015, 03:15:05
031500,17.9683, 05 Nov 2015, 03:15:35
031530,17.9669, 05 Nov 2015, 03:16:05
031600,17.9665, 05 Nov 2015, 03:16:36
031630,17.9664, 05 Nov 2015, 03:17:05
031700,17.966, 05 Nov 2015, 03:17:35
031730,17.9665, 05 Nov 2015, 03:18:05
031800,17.9656, 05 Nov 2015, 03:18:36
031830,17.9663, 05 Nov 2015, 03:19:05
031900,17.9655, 05 Nov 2015, 03:19:35
031930,17.9643, 05 Nov 2015, 03:20:06
032000,17.9637, 05 Nov 2015, 03:20:35
032030,17.9631, 05 Nov 2015, 03:21:06
032100,17.9626, 05 Nov 2015, 03:21:36
032130,17.9616, 05 Nov 2015, 03:22:06
032200,17.96, 05 Nov 2015, 03:22:36
032230,17.9588, 05 Nov 2015, 03:23:06
032300,17.9574, 05 Nov 2015, 03:23:36
032330,17.956, 05 Nov 2015, 03:24:06
032400,17.9548, 05 Nov 2015, 03:24:36
032430,17.9543, 05 Nov 2015, 03:25:06
032500,17.9534, 05 Nov 2015, 03:25:36
032530,17.952, 05 Nov 2015, 03:26:06
032600,17.9514, 05 Nov 2015, 03:26:36
032630,17.9509, 05 Nov 2015, 03:27:06
032700,17.9503, 05 Nov 2015, 03:27:36
032730,17.9496, 05 Nov 2015, 03:28:06
032800,17.9491, 05 Nov 2015, 03:28:36
032830,17.9484, 05 Nov 2015, 03:29:06
032900,17.9481, 05 Nov 2015, 03:29:36
032930,17.9476, 05 Nov 2015, 03:30:06
033000,17.945, 05 Nov 2015, 03:30:36
033030,17.9404, 05 Nov 2015, 03:31:05
033100,17.9344, 05 Nov 2015, 03:31:35
033130,17.9289, 05 Nov 2015, 03:32:06
033200,17.9232, 05 Nov 2015, 03:32:36
033230,17.9166, 05 Nov 2015, 03:33:06
033300,17.9109, 05 Nov 2015, 03:33:35
033330,17.9061, 05 Nov 2015, 03:34:06
033400,17.9025, 05 Nov 2015, 03:34:36
033430,17.9001, 05 Nov 2015, 03:35:06
033500,17.9, 05 Nov 2015, 03:35:35
033530,17.9015, 05 Nov 2015, 03:36:06
033600,17.9043, 05 Nov 2015, 03:36:36
033630,17.9083, 05 Nov 2015, 03:37:06
033700,17.9155, 05 Nov 2015, 03:37:35
033730,17.9247, 05 Nov 2015, 03:38:05
033800,17.9347, 05 Nov 2015, 03:38:36
033830,17.9463, 05 Nov 2015, 03:39:06
033900,17.9572, 05 Nov 2015, 03:39:36
033930,17.9677, 05 Nov 2015, 03:40:05
034000,17.9776, 05 Nov 2015, 03:40:36
034030,17.9864, 05 Nov 2015, 03:41:06
034100,17.9936, 05 Nov 2015, 03:41:35
034130,18.0014, 05 Nov 2015, 03:42:05
034200,18.0081, 05 Nov 2015, 03:42:35
034230,18.013, 05 Nov 2015, 03:43:06
034300,18.0181, 05 Nov 2015, 03:43:36
034330,18.0212, 05 Nov 2015, 03:44:05
034400,18.0245, 05 Nov 2015, 03:44:35
034430,18.0281, 05 Nov 2015, 03:45:05
034500,18.0323, 05 Nov 2015, 03:45:36
034530,18.0353, 05 Nov 2015, 03:46:06
034600,18.0383, 05 Nov 2015, 03:46:35
034630,18.0403, 05 Nov 2015, 03:47:05
034700,18.0406, 05 Nov 2015, 03:47:35
034730,18.0407, 05 Nov 2015, 03:48:06
034800,18.0404, 05 Nov 2015, 03:48:36
034830,18.0408, 05 Nov 2015, 03:49:06
034900,18.041, 05 Nov 2015, 03:49:35
034930,18.0411, 05 Nov 2015, 03:50:05
035000,18.0406, 05 Nov 2015, 03:50:36
035030,18.0403, 05 Nov 2015, 03:51:06
035100,18.0395, 05 Nov 2015, 03:51:35
035130,18.0394, 05 Nov 2015, 03:52:05
035200,18.0391, 05 Nov 2015, 03:52:35
035230,18.0388, 05 Nov 2015, 03:53:06
035300,18.0379, 05 Nov 2015, 03:53:36
035330,18.0382, 05 Nov 2015, 03:54:05
035400,18.0403, 05 Nov 2015, 03:54:35
035430,18.044, 05 Nov 2015, 03:55:05
035500,18.0462, 05 Nov 2015, 03:55:35
035530,18.0469, 05 Nov 2015, 03:56:06
035600,18.0471, 05 Nov 2015, 03:56:35
035630,18.0473, 05 Nov 2015, 03:57:05
035700,18.0473, 05 Nov 2015, 03:57:35
035730,18.0481, 05 Nov 2015, 03:58:05
035800,18.0483, 05 Nov 2015, 03:58:36
035830,18.0484, 05 Nov 2015, 03:59:05
035900,18.0479, 05 Nov 2015, 03:59:35
035930,18.0477, 05 Nov 2015, 04:00:06
040000,18.0467, 05 Nov 2015, 04:00:36
040030,18.0463, 05 Nov 2015, 04:01:06
040100,18.0469, 05 Nov 2015, 04:01:36
040130,18.0472, 05 Nov 2015, 04:02:06
040200,18.0474, 05 Nov 2015, 04:02:36
040230,18.0483, 05 Nov 2015, 04:03:06
040300,18.0493, 05 Nov 2015, 04:03:37
040330,18.0503, 05 Nov 2015, 04:04:06
040400,18.0506, 05 Nov 2015, 04:04:36
040430,18.051, 05 Nov 2015, 04:05:06
040500,18.0495, 05 Nov 2015, 04:05:36
040530,18.0491, 05 Nov 2015, 04:06:06
040600,18.0484, 05 Nov 2015, 04:06:36
040630,18.0487, 05 Nov 2015, 04:07:06
040700,18.0481, 05 Nov 2015, 04:07:36
040730,18.0477, 05 Nov 2015, 04:08:06
040800,18.0485, 05 Nov 2015, 04:08:36
040830,18.0488, 05 Nov 2015, 04:09:06
040900,18.0496, 05 Nov 2015, 04:09:36
040930,18.0492, 05 Nov 2015, 04:10:06
041000,18.0499, 05 Nov 2015, 04:10:36
041030,18.05, 05 Nov 2015, 04:11:06
041100,18.0501, 05 Nov 2015, 04:11:35
041130,18.0511, 05 Nov 2015, 04:12:06
041200,18.0559, 05 Nov 2015, 04:12:36
041230,18.0655, 05 Nov 2015, 04:13:06
041300,18.0691, 05 Nov 2015, 04:13:36
041330,18.069, 05 Nov 2015, 04:14:05
041400,18.0674, 05 Nov 2015, 04:14:36
041430,18.0646, 05 Nov 2015, 04:15:06
041500,18.0617, 05 Nov 2015, 04:15:36
041530,18.0592, 05 Nov 2015, 04:16:06
041600,18.0577, 05 Nov 2015, 04:16:35
041630,18.0562, 05 Nov 2015, 04:17:05
041700,18.0551, 05 Nov 2015, 04:17:36
041730,18.0531, 05 Nov 2015, 04:18:06
041800,18.0516, 05 Nov 2015, 04:18:36
041830,18.0506, 05 Nov 2015, 04:19:05
041900,18.0507, 05 Nov 2015, 04:19:35
041930,18.0501, 05 Nov 2015, 04:20:06
042000,18.0503, 05 Nov 2015, 04:20:36
042030,18.0511, 05 Nov 2015, 04:21:05
042100,18.0514, 05 Nov 2015, 04:21:35
042130,18.0515, 05 Nov 2015, 04:22:05
042200,18.0521, 05 Nov 2015, 04:22:36
042230,18.0526, 05 Nov 2015, 04:23:06
042300,18.0523, 05 Nov 2015, 04:23:36
042330,18.0532, 05 Nov 2015, 04:24:05
042400,18.0537, 05 Nov 2015, 04:24:35
042430,18.0543, 05 Nov 2015, 04:25:06
042500,18.0544, 05 Nov 2015, 04:25:36
042530,18.053, 05 Nov 2015, 04:26:06
042600,18.052, 05 Nov 2015, 04:26:35
042630,18.0518, 05 Nov 2015, 04:27:05
042700,18.0516, 05 Nov 2015, 04:27:36
042730,18.053, 05 Nov 2015, 04:28:06
042800,18.0536, 05 Nov 2015, 04:28:36
042830,18.0541, 05 Nov 2015, 04:29:05
042900,18.0543, 05 Nov 2015, 04:29:35
042930,18.0546, 05 Nov 2015, 04:30:05
043000,18.0544, 05 Nov 2015, 04:30:36
043030,18.0541, 05 Nov 2015, 04:31:05
043100,18.0542, 05 Nov 2015, 04:31:35
043130,18.0537, 05 Nov 2015, 04:32:05
043200,18.0539, 05 Nov 2015, 04:32:35
043230,18.0542, 05 Nov 2015, 04:33:06
043300,18.0531, 05 Nov 2015, 04:33:35
043330,18.0525, 05 Nov 2015, 04:34:05
043400,18.0517, 05 Nov 2015, 04:34:35
043430,18.0504, 05 Nov 2015, 04:35:05
043500,18.0504, 05 Nov 2015, 04:35:36
043530,18.0493, 05 Nov 2015, 04:36:05
043600,18.0482, 05 Nov 2015, 04:36:35
043630,18.047, 05 Nov 2015, 04:37:05
043700,18.0466, 05 Nov 2015, 04:37:35
043730,18.0473, 05 Nov 2015, 04:38:06
043800,18.0473, 05 Nov 2015, 04:38:35
043830,18.0477, 05 Nov 2015, 04:39:05
043900,18.0483, 05 Nov 2015, 04:39:35
043930,18.0497, 05 Nov 2015, 04:40:06
044000,18.0507, 05 Nov 2015, 04:40:36
044030,18.0513, 05 Nov 2015, 04:41:06
044100,18.0514, 05 Nov 2015, 04:41:36
044130,18.0504, 05 Nov 2015, 04:42:06
044200,18.0501, 05 Nov 2015, 04:42:36
044230,18.0499, 05 Nov 2015, 04:43:06
044300,18.0505, 05 Nov 2015, 04:43:36
044330,18.0499, 05 Nov 2015, 04:44:06
044400,18.0497, 05 Nov 2015, 04:44:36
044430,18.0499, 05 Nov 2015, 04:45:06
044500,18.0495, 05 Nov 2015, 04:45:36
044530,18.0503, 05 Nov 2015, 04:46:06
044600,18.0508, 05 Nov 2015, 04:46:36
044630,18.0504, 05 Nov 2015, 04:47:06
044700,18.0504, 05 Nov 2015, 04:47:36
044730,18.0499, 05 Nov 2015, 04:48:06
044800,18.0502, 05 Nov 2015, 04:48:36
044830,18.05, 05 Nov 2015, 04:49:06
044900,18.0499, 05 Nov 2015, 04:49:36
044930,18.0495, 05 Nov 2015, 04:50:05
045000,18.0495, 05 Nov 2015, 04:50:36
045030,18.0509, 05 Nov 2015, 04:51:06
045100,18.051, 05 Nov 2015, 04:51:36
045130,18.0509, 05 Nov 2015, 04:52:06
045200,18.0505, 05 Nov 2015, 04:52:35
045230,18.051, 05 Nov 2015, 04:53:06
045300,18.0516, 05 Nov 2015, 04:53:36
045330,18.0532, 05 Nov 2015, 04:54:06
045400,18.0546, 05 Nov 2015, 04:54:36
045430,18.0566, 05 Nov 2015, 04:55:05
045500,18.0579, 05 Nov 2015, 04:55:36
045530,18.059, 05 Nov 2015, 04:56:06
045600,18.0608, 05 Nov 2015, 04:56:36
045630,18.0623, 05 Nov 2015, 04:57:06
045700,18.0638, 05 Nov 2015, 04:57:35
045730,18.0648, 05 Nov 2015, 04:58:06
045800,18.0659, 05 Nov 2015, 04:58:36
045830,18.067, 05 Nov 2015, 04:59:06
045900,18.0672, 05 Nov 2015, 04:59:36
045930,18.0662, 05 Nov 2015, 05:00:05
050000,18.0662, 05 Nov 2015, 05:00:35
050030,18.0654, 05 Nov 2015, 05:01:06
050100,18.0652, 05 Nov 2015, 05:01:36
050130,18.0648, 05 Nov 2015, 05:02:05
050200,18.0649, 05 Nov 2015, 05:02:35
050230,18.0631, 05 Nov 2015, 05:03:05
050300,18.0634, 05 Nov 2015, 05:03:36
050330,18.0627, 05 Nov 2015, 05:04:06
050400,18.063, 05 Nov 2015, 05:04:36
050430,18.0627, 05 Nov 2015, 05:05:05
050500,18.0615, 05 Nov 2015, 05:05:35
050530,18.062, 05 Nov 2015, 05:06:05
050600,18.0619, 05 Nov 2015, 05:06:36
050630,18.0625, 05 Nov 2015, 05:07:06
050700,18.0631, 05 Nov 2015, 05:07:35
050730,18.0625, 05 Nov 2015, 05:08:05
050800,18.0621, 05 Nov 2015, 05:08:35
050830,18.0618, 05 Nov 2015, 05:09:06
050900,18.0624, 05 Nov 2015, 05:09:36
050930,18.0634, 05 Nov 2015, 05:10:05
051000,18.0645, 05 Nov 2015, 05:10:35
051030,18.0644, 05 Nov 2015, 05:11:05
051100,18.064, 05 Nov 2015, 05:11:36